Location: Oberkirch
(48.5323°N, 8.0787°E)
Time: 17:17:13
(UTC+00:00)

NOSS 0 Rocket - Pass Details

Date: 08 November 2025
Orbit: 934 x 953 km, 70.0° (Epoch: 12 December)

Event Time Altitude Azimuth Distance (km) Brightness Sun altitude
Rises 04:35:22 0° 205° (SSW) 3,577 6.8 -18.3°
Reaches altitude 10° 04:37:53 10° 205° (SSW) 2,637 6.1 -17.9°
Maximum altitude 04:44:00 85° 117° (ESE) 946 3.9 -16.9°
Drops below altitude 10° 04:50:11 10° 31° (NNE) 2,659 6.6 -15.9°
Sets 04:52:43 0° 31° (NNE) 3,609 7.3 -15.4°
